2023/03/10 00:00:00, 0.0, 7.8
2023/03/10 00:10:00, 0.1, 7.7
2023/03/10 00:20:00, 0.1, 7.4
2023/03/10 00:30:00, 0.1, 7.2
2023/03/10 00:40:00, 0.2, 7.2
2023/03/10 00:50:00, 0.2, 7.2
2023/03/10 01:00:00, 0.2, 7.1
2023/03/10 01:10:00, 0.2, 6.7
2023/03/10 01:20:00, 0.1, 6.7
2023/03/10 01:30:00, 0.1, 6.4
2023/03/10 01:40:00, 0.1, 6.7
2023/03/10 01:50:00, 0.1, 6.4
2023/03/10 02:00:00, 0.1, 6.5
2023/03/10 02:10:00, 0.0, 6.2
2023/03/10 02:20:00, 0.0, 6.8
2023/03/10 02:30:00, 0.0, 6.0
2023/03/10 02:40:00, 0.0, 6.0
2023/03/10 02:50:00, 0.1, 5.7
2023/03/10 03:00:00, 0.1, 5.8
2023/03/10 03:10:00, 0.1, 5.7
2023/03/10 03:20:00, 0.0, 5.6
2023/03/10 03:30:00, 0.0, 5.5
2023/03/10 03:40:00, 0.0, 5.7
2023/03/10 03:50:00, 0.1, 6.0
2023/03/10 04:00:00, 0.1, 6.2
2023/03/10 04:10:00, 0.0, 6.2
2023/03/10 04:20:00, 0.0, 6.4
2023/03/10 04:30:00, 0.1, 6.5
2023/03/10 04:40:00, 0.1, 6.6
2023/03/10 04:50:00, 0.0, 6.3
2023/03/10 05:00:00, 0.0, 6.3
2023/03/10 05:10:00, 0.0, 6.4
2023/03/10 05:20:00, 0.0, 5.9
2023/03/10 05:30:00, 0.0, 6.0
2023/03/10 05:40:00, 0.0, 5.7
2023/03/10 05:50:00, 0.1, 5.7
2023/03/10 06:00:00, 0.1, 5.7
2023/03/10 06:10:00, 0.1, 6.0
2023/03/10 06:20:00, 0.1, 5.6
2023/03/10 06:30:00, 0.1, 5.7
2023/03/10 06:40:00, 0.1, 6.0
2023/03/10 06:50:00, 0.1, 6.2
2023/03/10 07:00:00, 0.0, 6.2
2023/03/10 07:10:00, 0.0, 6.2
2023/03/10 07:20:00, 0.0, 6.6
2023/03/10 07:30:00, 0.0, 6.7
2023/03/10 07:40:00, 0.1, 7.1
2023/03/10 07:50:00, 0.1, 7.8
2023/03/10 08:00:00, 0.1, 8.1
2023/03/10 08:10:00, 0.1, 8.1
2023/03/10 08:20:00, 0.1, 8.7
2023/03/10 08:30:00, 0.1, 9.5
2023/03/10 08:40:00, 0.0,10.1
2023/03/10 08:50:00, 0.0,10.5
2023/03/10 09:00:00, 0.1,10.4
2023/03/10 09:10:00, 0.1,11.7
2023/03/10 09:20:00, 0.1,12.8
2023/03/10 09:30:00, 0.1,13.5
2023/03/10 09:40:00, 0.1,14.8
2023/03/10 09:50:00, 0.1,14.8
2023/03/10 10:00:00, 0.1,15.3
2023/03/10 10:10:00, 0.1,15.5
2023/03/10 10:20:00, 0.1,15.3
2023/03/10 10:30:00, 0.1,15.9
2023/03/10 10:40:00, 0.1,15.9
2023/03/10 10:50:00, 0.1,16.3
2023/03/10 11:00:00, 0.1,15.8
2023/03/10 11:10:00, 0.1,17.0
2023/03/10 11:20:00, 0.1,16.8
2023/03/10 11:30:00, 0.3,17.1
2023/03/10 11:40:00, 0.3,17.5
2023/03/10 11:50:00, 0.2,18.0
2023/03/10 12:00:00, 0.1,18.0
2023/03/10 12:10:00, 0.0,18.7
2023/03/10 12:20:00, 0.1,19.2
2023/03/10 12:30:00, 0.1,19.7
2023/03/10 12:40:00, 0.1,19.5
2023/03/10 12:50:00, 0.1,19.7
2023/03/10 13:00:00, 0.1,20.4
2023/03/10 13:10:00, 0.1,20.3
2023/03/10 13:20:00, 0.1,20.4
2023/03/10 13:30:00, 0.1,20.3
2023/03/10 13:40:00, 0.1,20.4
2023/03/10 13:50:00, 0.1,20.8
2023/03/10 14:00:00, 0.1,21.8
2023/03/10 14:10:00, 0.1,21.6
2023/03/10 14:20:00, 0.1,21.0
2023/03/10 14:30:00, 0.1,21.0
2023/03/10 14:40:00, 0.0,21.2
2023/03/10 14:50:00, 0.0,21.6
2023/03/10 15:00:00, 0.0,22.1
2023/03/10 15:10:00, 0.0,22.7
2023/03/10 15:20:00, 0.0,23.1
2023/03/10 15:30:00, 0.0,23.0
2023/03/10 15:40:00, 0.0,23.4
2023/03/10 15:50:00, 0.0,24.0
2023/03/10 16:00:00, 0.0,24.0
2023/03/10 16:10:00, 0.0,23.1
2023/03/10 16:20:00, 0.0,23.7
2023/03/10 16:30:00, 0.0,22.2
2023/03/10 16:40:00, 0.0,19.8
2023/03/10 16:50:00, 0.0,17.9
2023/03/10 17:00:00, 0.0,17.4
2023/03/10 17:10:00, 0.0,16.8
2023/03/10 17:20:00, 0.0,16.4
2023/03/10 17:30:00, 0.0,15.3
2023/03/10 17:40:00, 0.0,14.7
2023/03/10 17:50:00, 0.0,14.4
2023/03/10 18:00:00, 0.0,13.4
2023/03/10 18:10:00, 0.0,12.5
2023/03/10 18:20:00, 0.0,12.3
2023/03/10 18:30:00, 0.0,11.7
2023/03/10 18:40:00, 0.1,11.3
2023/03/10 18:50:00, 0.1,10.5
2023/03/10 19:00:00, 0.0,10.4
2023/03/10 19:10:00, 0.0,10.0
2023/03/10 19:20:00, 0.0, 9.7
2023/03/10 19:30:00, 0.0, 9.3
2023/03/10 19:40:00, 0.0, 9.2
2023/03/10 19:50:00, 0.0, 8.6
2023/03/10 20:00:00, 0.0, 8.5
2023/03/10 20:10:00, 0.1, 8.1
2023/03/10 20:20:00, 0.1, 8.0
2023/03/10 20:30:00, 0.1, 7.7
2023/03/10 20:40:00, 0.1, 7.8
2023/03/10 20:50:00, 0.1, 7.4
2023/03/10 21:00:00, 0.1, 7.3
2023/03/10 21:10:00, 0.1, 7.0
2023/03/10 21:20:00, 0.1, 7.0
2023/03/10 21:30:00, 0.1, 7.1
2023/03/10 21:40:00, 0.1, 6.5
2023/03/10 21:50:00, 0.1, 6.3
2023/03/10 22:00:00, 0.1, 6.2
2023/03/10 22:10:00, 0.1, 6.1
2023/03/10 22:20:00, 0.2, 6.0
2023/03/10 22:30:00, 0.3, 5.9
2023/03/10 22:40:00, 0.3, 5.6
2023/03/10 22:50:00, 0.2, 5.4
2023/03/10 23:00:00, 0.2, 5.4
2023/03/10 23:10:00, 0.2, 5.4
2023/03/10 23:20:00, 0.2, 5.2
2023/03/10 23:30:00, 0.2, 5.0
2023/03/10 23:40:00, 0.1, 4.6
2023/03/10 23:50:00, 0.1, 4.8
